Tracking 30995 objects as of 5-Jul-2025
HD Live streaming from Space Station
objects crossing your sky now

SL-14 DEB

Track SL-14 DEB now!
10-day predictions


NORAD ID: 45323
Int'l Code: 1991-056BM
Perigee: 1,187.5 km
Apogee: 1,192.4 km
Inclination: 82.5 °
Period: 109.0 minutes
Semi major axis: 7560 km
RCS: Unknown
Launch date: August 15, 1991
Source: Commonwealth of Independent States (former USSR) (CIS)
Launch site: PLESETSK MISSILE AND SPACE COMPLEX (PKMTR)

Note: This is SATELLITE DEBRIS
Your satellite tracking list
Your tracking list is empty




NASA's NSSDC Master Catalog

Two Line Element Set (TLE):
1 45323U 91056BM  25186.52776611  .00000510  00000-0  12287-2 0  9993
2 45323  82.5307  14.4578 0003217 220.8423 139.2460 13.20497227257632
Source of the keplerian elements: AFSPC